Regional Weather Roundup
Issued by NWS Green Bay, WI

Home | Current Version | Previous Version | Graphics & Text | Print | Product List | Glossary Off
Versions: 1 2 3 4 5 6 7 8 9 10 11 12 13 14 15 16 17 18 19 20 21 22 23 24 25 26 27 28 29 30 31 32 33 34 35 36 37 38 39 40 41 42 43 44 45 46 47 48 49 50

000
ASUS43 KGRB 010211
RWRGRB

NORTH-CENTRAL AND NORTHEAST WISCONSIN REGIONAL WEATHER ROUNDUP
NATIONAL WEATHER SERVICE GREEN BAY WI
900 PM CDT FRI SEP 30 2016

WIZ005-009-010>012-018-019-010300-
NORTH CENTRAL WISCONSIN

CITY           SKY/WX    TMP DP  RH WIND       PRES   REMARKS
IRONWOOD       CLOUDY    55  54  94 CALM      30.29F FOG
MANITOWISH WTR CLEAR     55  52  88 NE7       30.27S
ARBOR VITAE    CLEAR     59  54  82 NE6       30.26S
EAGLE RIVER    CLEAR     54  49  81 NE7       30.26F
LAND O LAKES   CLEAR     55  51  87 NE3       30.29F
RHINELANDER    PTCLDY    59  49  69 E7        30.26S
PHILLIPS       CLEAR     57  52  83 N6        30.24F
ANTIGO         MOCLDY    57  51  79 NE6       30.24S
TOMAHAWK       PTCLDY    58  46  64 NE3       30.25S
MERRILL        PTCLDY    57  50  76 NE5       30.23F
$$

WIZ013-073-010300-
NORTHEAST WISCONSIN

CITY           SKY/WX    TMP DP  RH WIND       PRES   REMARKS
IRON MOUNTAIN  CLEAR     56  49  77 NE7       30.25F
MARINETTE      CLOUDY    63  55  75 E10       30.22F
OCONTO         CLOUDY    62  55  77 NE7G17    30.19F
$$

WIZ017-030-035>037-045-010300-
CENTRAL WISCONSIN

CITY           SKY/WX    TMP DP  RH WIND       PRES   REMARKS
MEDFORD        CLOUDY    59  52  76 NE6       30.22S
WAUSAU         CLOUDY    62  51  67 NE8       30.20S
MOSINEE        CLOUDY    61  54  77 NE8       30.22S
MARSHFIELD     CLOUDY    62  51  67 NE6       30.19F
WISC RAPIDS    CLOUDY    62  54  74 E6        30.20S
STEVENS POINT  CLOUDY    60  52  74 E7        30.20S
WAUPACA        LGT RAIN  61  55  81 NE6       30.19S
SHAWANO        CLOUDY    64  53  69 NE9G16    30.20F
CLINTONVILLE   CLOUDY    61  50  67 NE9       30.20S
WAUTOMA        LGT RAIN  58  56  93 N7        30.19S
$$

WIZ038-039-048-051-010300-
FOX VALLEY

CITY           SKY/WX    TMP DP  RH WIND       PRES   REMARKS
NWS GREEN BAY  CLOUDY    61  60  97 NE15      30.18F
APPLETON       CLOUDY    61  57  88 NE13      30.17S
OSHKOSH        LGT RAIN  61  57  87 NE13      30.15F
FOND DU LAC    RAIN      61  59  93 NE10      30.15F
$$

WIZ022-050-052-010300-
EAST CENTRAL WISCONSIN

CITY           SKY/WX    TMP DP  RH WIND       PRES   REMARKS
EPHRAIM        CLOUDY    61  55  79 E14G21    30.20F
WASHINGTON ISL CLOUDY    62  53  71 E9G21     30.22S
STURGEON BAY   CLOUDY    62  56  80 NE14G20   30.20S
MANITOWOC      LGT RAIN  62  60  93 E10       30.17S
SHEBOYGAN      RAIN      61  58  90 E13       30.15S
$$

LMZ563-521-522-541>543-010300-
LAKESHORE

STATION/POSITION TIME  TEMP    WIND        PRES    VSBY  WAVE
                       AIR SEA DIR/SP/G                  HT/PER
                 (UTC) (F)     (DEG/KT/KT) (MB)    (MI)  (FT/S)
SHEBOYGAN LKSHOR 0200   61      60/ 15/ 17 1020.5F
KEWAUNEE LKSHORE 0100   63      40/ 16/ 21 1021.2F
NORTHPORT PIER   0100   64      70/ 18/ 24 1023.4S
N MID LAKE BUOY  0150   64 65   90/ 21/ 25 1022.3F         5/ 5
S GREEN BAY BUOY 0100   63 62   60/ 19/ 25 1021.9F
SISTER BAY LKSHO 0108   63      60/  6/ 10   N/A
CHAMBERS ISLAND  0100   64      40/ 13/ 16 1023.0S
MENOMINEE LKSHOR 0100   63      40/ 18/ 23 1022.3F
$$



USA.gov is the U.S. government's official web portal to all federal, state and local government web resources and services.